Year,Month,Day,Hour,Minute,Value (Times are PST for temperature in C)
2014,03,28,17,26,9.00
2014,03,28,17,27,9.00
2014,03,28,17,28,9.10
2014,03,28,17,29,9.10
2014,03,28,17,30,9.10
2014,03,28,17,31,9.10
2014,03,28,17,32,9.10
2014,03,28,17,33,9.10
2014,03,28,17,34,9.10
2014,03,28,17,35,9.10
2014,03,28,17,36,9.20
2014,03,28,17,37,9.20
2014,03,28,17,38,9.20
2014,03,28,17,39,9.20
2014,03,28,17,40,9.20
2014,03,28,17,41,9.30
2014,03,28,17,42,9.30
2014,03,28,17,43,9.30
2014,03,28,17,44,9.30
2014,03,28,17,45,9.30
2014,03,28,17,46,9.30
2014,03,28,17,47,9.40
2014,03,28,17,48,9.40
2014,03,28,17,49,9.40
2014,03,28,17,50,9.40
2014,03,28,17,51,9.40
2014,03,28,17,52,9.40
2014,03,28,17,53,9.50
2014,03,28,17,54,9.50
2014,03,28,17,55,9.50
2014,03,28,17,56,9.60
2014,03,28,17,57,9.60
2014,03,28,17,58,9.60
2014,03,28,17,59,9.60
2014,03,28,18,00,9.60
2014,03,28,18,01,9.70
2014,03,28,18,02,9.70
2014,03,28,18,03,9.70
2014,03,28,18,04,9.70
2014,03,28,18,05,9.70
2014,03,28,18,06,9.70
2014,03,28,18,07,9.70
2014,03,28,18,08,9.80
2014,03,28,18,09,9.80
2014,03,28,18,10,9.80
2014,03,28,18,11,9.80
2014,03,28,18,12,9.80
2014,03,28,18,13,9.80
2014,03,28,18,14,9.80
2014,03,28,18,15,9.80
2014,03,28,18,16,9.80
2014,03,28,18,17,9.80
2014,03,28,18,18,9.80
2014,03,28,18,19,9.80
2014,03,28,18,20,9.80
2014,03,28,18,21,9.80
2014,03,28,18,22,9.80
2014,03,28,18,23,9.80
2014,03,28,18,24,9.90
2014,03,28,18,25,9.80
2014,03,28,18,26,9.80
2014,03,28,18,27,9.80
2014,03,28,18,28,9.80
2014,03,28,18,29,9.90
2014,03,28,18,30,9.90
2014,03,28,18,31,9.90
2014,03,28,18,32,9.90
2014,03,28,18,33,9.90
2014,03,28,18,34,9.90
2014,03,28,18,35,9.90
2014,03,28,18,36,9.90
2014,03,28,18,37,9.90
2014,03,28,18,38,9.90
2014,03,28,18,39,9.90
2014,03,28,18,40,9.90
2014,03,28,18,41,9.80
2014,03,28,18,42,9.80
2014,03,28,18,43,9.80
2014,03,28,18,44,9.80
2014,03,28,18,45,9.70
2014,03,28,18,46,9.70
2014,03,28,18,47,9.70
2014,03,28,18,48,9.60
2014,03,28,18,49,9.60
2014,03,28,18,50,9.60
2014,03,28,18,51,9.60
2014,03,28,18,52,9.60
2014,03,28,18,53,9.50
2014,03,28,18,54,9.50
2014,03,28,18,55,9.50
2014,03,28,18,56,9.40
2014,03,28,18,57,9.40
2014,03,28,18,58,9.40
2014,03,28,18,59,9.40
2014,03,28,19,00,9.40
2014,03,28,19,01,9.40
2014,03,28,19,02,9.40
2014,03,28,19,03,9.40
2014,03,28,19,04,9.40
2014,03,28,19,05,9.30
2014,03,28,19,06,9.30
2014,03,28,19,07,9.30
2014,03,28,19,08,9.20
2014,03,28,19,09,9.20
2014,03,28,19,10,9.10
2014,03,28,19,11,9.10
2014,03,28,19,12,9.10
2014,03,28,19,13,9.10
2014,03,28,19,14,9.10
2014,03,28,19,15,9.10
2014,03,28,19,16,9.10
2014,03,28,19,17,9.10
2014,03,28,19,18,9.10
2014,03,28,19,19,9.10
2014,03,28,19,20,9.10
